User: anonymous   Login
Location: Unspecified
(0.0000°N, 0.0000°E)
Time: 15:50:03
(UTC+00:00)
Language:

Envisat - Orbit

View from above orbital plane
View from above orbital plane
View from above satellite
View from above satellite

Ground track
Ground track

The orbit data is extracted from the following two-line orbital elements,

1 27386U 02009A   22337.16170977  .00000138  00000-0  59126-4 0  9991
2 27386  98.2054 310.5372 0001299  85.5318 285.3419 14.38191614 87788
Epoch (UTC): 03 December 2022 03:52:51
Eccentricity: 0.0001299
inclination: 98.2054°
perigee height: 763 km
apogee height: 765 km
right ascension of ascending node: 310.5372°
argument of perigee: 85.5318°
revolutions per day: 14.38191614
mean anomaly at epoch: 285.3419°
orbit number at epoch: 8778

The dashed part of the orbit path shows where the satellite is in the earth's shadow,  

DLR